Change the Weather History Date:

Saturday, May 3, 2014

  Actual Average Record
Temperature  
Mean Temperature 52 °F -  
Max Temperature 61 °F - 78 °F (2013)
Min Temperature 42 °F - 36 °F (2002)
Degree Days  
Heating Degree Days 13    
Month to date heating degree days 19  
Since 1 July heating degree days 4588  
Cooling Degree Days 0    
Month to date cooling degree days 2  
Year to date cooling degree days 2  
Growing Degree Days 2 (Base 50)    
Moisture  
Dew Point 47 °F    
Average Humidity 79    
Maximum Humidity 100    
Minimum Humidity 57    
Precipitation  
Precipitation 0.19 in - 1.19 in (2012)
Month to date precipitation 0.19  
Year to date precipitation 21.34  
Sea Level Pressure  
Sea Level Pressure 29.86 in    
Wind  
Wind Speed 6 mph (SSE)    
Max Wind Speed 17 mph    
Max Gust Speed 24 mph    
Visibility 10 miles    
Events Rain    
T = Trace of Precipitation, MM = Missing Value Source: NWS Daily Summary

Daily Weather History Graph

Daily Weather History Graph

Search for Another Location

Airport or City:

Trip Planner

Search our weather history database for the weather conditions in past years. The results will help you decide how hot, cold, wet, or windy it might be!

Date:

Astronomy

May. 03, 2014 Rise Set
Actual Time 5:55 AM PDT 8:21 PM PDT
Civil Twilight 5:22 AM PDT 8:54 PM PDT
Nautical Twilight 4:41 AM PDT 9:36 PM PDT
Astronomical Twilight 3:54 AM PDT 10:24 PM PDT
Moon 9:27 AM PDT (5/3) No Moon Set
Length of Visible Light 15h 32m
Length of Day
14h 25m
Waxing Crescent, 20% of the Moon is Illuminated
May 3
Waxing Crescent
May 6
First Quarter
May 14
Full
May 21
Last Quarter
May 28
New

Hourly Weather History & Observations

Time (PDT) Temp. Windchill Dew Point Humidity Pressure Visibility Wind Dir Wind Speed Gust Speed Precip Events Conditions
12:53 AM 46.9 °F - 45.0 °F 93% 29.99 in 10.0 mi West 4.6 mph - N/A   Clear
1:53 AM 46.9 °F - 46.0 °F 97% 29.98 in 10.0 mi WNW 3.5 mph - N/A   Clear
3:53 AM 45.0 °F 43.5 °F 44.1 °F 97% 29.97 in 10.0 mi WSW 3.5 mph - N/A   Scattered Clouds
4:53 AM 44.1 °F 40.8 °F 42.1 °F 93% 29.95 in 10.0 mi SE 5.8 mph - N/A   Clear
5:53 AM 44.1 °F - 42.1 °F 93% 29.94 in 10.0 mi Calm Calm - N/A   Clear
6:53 AM 45.0 °F 43.5 °F 43.0 °F 93% 29.94 in 10.0 mi SE 3.5 mph - N/A   Mostly Cloudy
7:53 AM 51.1 °F - 46.0 °F 83% 29.93 in 10.0 mi SSW 6.9 mph - N/A   Mostly Cloudy
8:53 AM 53.1 °F - 46.9 °F 80% 29.92 in 10.0 mi SSE 8.1 mph - N/A   Overcast
9:53 AM 57.0 °F - 48.0 °F 72% 29.91 in 10.0 mi South 10.4 mph - 0.00 in   Overcast
10:53 AM 57.0 °F - 46.9 °F 69% 29.90 in 10.0 mi South 8.1 mph - N/A   Overcast
11:53 AM 57.9 °F - 45.0 °F 62% 29.89 in 10.0 mi South 8.1 mph - N/A   Overcast
1:53 PM 60.1 °F - 48.0 °F 64% 29.86 in 10.0 mi South 8.1 mph - 0.00 in Rain Light Rain
2:53 PM 59.0 °F - 52.0 °F 78% 29.86 in 10.0 mi South 5.8 mph - 0.02 in Rain Light Rain
3:53 PM 59.0 °F - 48.0 °F 67% 29.84 in 10.0 mi SSW 8.1 mph - 0.00 in   Overcast
4:53 PM 57.9 °F - 48.9 °F 72% 29.83 in 10.0 mi South 4.6 mph - 0.00 in Rain Light Rain
5:53 PM 57.0 °F - 48.0 °F 72% 29.81 in 10.0 mi South 5.8 mph - 0.00 in Rain Light Rain
6:53 PM 57.0 °F - 48.9 °F 74% 29.79 in 10.0 mi SSE 10.4 mph - 0.00 in   Overcast
7:14 PM 55.9 °F - 48.9 °F 77% 29.78 in 10.0 mi SSE 8.1 mph - 0.00 in Rain Light Rain
7:53 PM 55.0 °F - 50.0 °F 83% 29.78 in 10.0 mi SSE 13.8 mph 18.4 mph 0.01 in Rain Light Rain
8:23 PM 54.0 °F - 51.1 °F 90% 29.78 in 8.0 mi SE 8.1 mph - 0.03 in Rain Light Rain
8:53 PM 53.1 °F - 51.1 °F 93% 29.78 in 10.0 mi South 3.5 mph - 0.04 in Rain Light Rain
9:18 PM 53.1 °F - 50.0 °F 89% 29.79 in 5.0 mi SSW 8.1 mph - 0.04 in Rain Rain
9:45 PM 52.0 °F - 46.9 °F 83% 29.79 in 6.0 mi Calm Calm - 0.11 in Rain Light Rain
9:53 PM 51.1 °F - 46.9 °F 86% 29.79 in 10.0 mi East 4.6 mph - 0.11 in Rain Light Rain
10:53 PM 50.0 °F - 48.0 °F 93% 29.78 in 10.0 mi East 3.5 mph - 0.01 in   Mostly Cloudy
11:48 PM 51.8 °F - 48.2 °F 88% 29.79 in 10.0 mi SE 8.1 mph - 0.00 in   Overcast
11:53 PM 51.1 °F - 48.0 °F 89% 29.79 in 10.0 mi SE 4.6 mph - 0.00 in   Overcast